This is the latest recevied weather packets stored in our database for station/object MB7UUE. If no packets are shown the sender has not sent any weather packets the latest 10 day(s).
| Time | Temp. | Humidity | Pressure | Rain* | Wind** | Luminosity | Snow |
|---|---|---|---|---|---|---|---|
| 1778072294 | 12.78° C | 60% | 1012.9 hPa | 0 mm | - | - | - |
| 1778071155 | 12.78° C | 61% | 1012.9 hPa | 0 mm | - | - | - |
| 1778070014 | 12.22° C | 63% | 1012.9 hPa | 0 mm | - | - | - |
| 1778068874 | 12.22° C | 60% | 1013 hPa | 0 mm | - | - | - |
| 1778067734 | 12.78° C | 59% | 1012.9 hPa | 0 mm | - | - | - |
| 1778066594 | 12.78° C | 59% | 1012.9 hPa | 0 mm | - | - | - |
| 1778065455 | 12.78° C | 58% | 1012.9 hPa | 0 mm | - | - | - |
| 1778064314 | 12.22° C | 55% | 1012.8 hPa | 0 mm | - | - | - |
| 1778063174 | 12.22° C | 58% | 1012.9 hPa | 0 mm | - | - | - |
| 1778062034 | 12.22° C | 59% | 1012.9 hPa | 0 mm | - | - | - |
| 1778060895 | 11.67° C | 59% | 1012.9 hPa | 0 mm | - | - | - |
| 1778059754 | 11.11° C | 63% | 1012.9 hPa | 0 mm | - | - | - |
| 1778058614 | 11.11° C | 65% | 1013 hPa | 0 mm | - | - | - |
| 1778057474 | 11.11° C | 66% | 1012.9 hPa | 0 mm | - | - | - |
| 1778056336 | 10° C | 69% | 1012.9 hPa | 0 mm | - | - | - |
| 1778055195 | 10° C | 69% | 1012.9 hPa | 0 mm | - | - | - |
| 1778054055 | 10° C | 72% | 1012.9 hPa | 0 mm | - | - | - |
| 1778052914 | 9.44° C | 72% | 1012.8 hPa | 0 mm | - | - | - |
| 1778051775 | 9.44° C | 72% | 1012.8 hPa | 0 mm | - | - | - |
| 1778050634 | 9.44° C | 74% | 1012.6 hPa | 0 mm | - | - | - |
| 1778049495 | 8.33° C | 78% | 1012.4 hPa | 0 mm | - | - | - |
| 1778048355 | 8.33° C | 78% | 1012.5 hPa | 0 mm | - | - | - |
| 1778047216 | 7.78° C | 78% | 1012.4 hPa | 0 mm | - | - | - |
| 1778046074 | 7.78° C | 78% | 1012.4 hPa | 0 mm | - | - | - |
| 1778044936 | 7.78° C | 78% | 1012.3 hPa | 0 mm | - | - | - |
* Rain latest hour (hover to see other rain measurements)
** Current wind speed in m/s (hover to see current wind gust speed)